カタログに戻る

CZ-6A DEB

運用中SSO
NORAD 54420·DEBRIS·🇨🇳 China

打ち上げ Nov 11, 2022 から Taiyuan Satellite Launch Center

Loading…

次のパス (今後24時間)

TLE

最新Source: Space-Track

元期: Sep 13, 2026, 19:56 UTC

1 54420U 22151EU  26256.83077971  .00000617  00000-0  14698-3 0  9994
2 54420  98.6644 333.1542 0117068 315.1105  44.0667 14.53679718202770

AllMySatでCZ-6A DEBをリアルタイム追跡

Download on the App Store